Home   Weather   Maldonado   Past weeks
Flag for Uruguay

Past Weather in Maldonado, Uruguay — Yesterday and Last 2 Weeks

Now
64 °F

Scattered clouds.


Feels Like: 64 °F
Forecast: 68 / 56 °F
Wind: 6 mph from South

Location: Capitan Corbeta

Current Time: Dec 13, 2019 at 10:11:21 am

Latest Report: Dec 13, 2019 at 9:00 am


Visibility: N/A

Pressure: 30.07 "Hg

Humidity: 56%

Dew Point: 48 °F

Location of MaldonadoLocation

Past Weather in Maldonado — Graph

°F

Maldonado Temperature Yesterday

Maximum temperature yesterday: 77 °F (at 10:00 am)
Minimum temperature yesterday: 63 °F (at 8:00 pm)
Average temperature yesterday: 68 °F

High & Low Weather Summary for the Past Weeks

 TemperatureHumidityPressure
High93 °F (Dec 10, 12:00 pm)100% (Dec 4, 11:00 pm)30.12 "Hg (Dec 4, 11:00 pm)
Low50 °F (Dec 3, 3:00 am)20% (Nov 29, 3:00 pm)29.53 "Hg (Dec 12, 4:00 am)
Average69 °F61%29.84 "Hg
* Reported Nov 28 9:00 am — Dec 13 9:00 am, Maldonado. Weather by CustomWeather, © 2019

Note: Actual official high and low records may vary slightly from our data, if they occured in-between our weather recording intervals... More about our weather records

Maldonado Weather History for the Previous 24 Hours

Scroll right to see more
 ConditionsComfort  
Time TempWeatherWind HumidityBarometerVisibility
9:00 am
Fri, Dec 13
64 °FScattered clouds.6 mph56%30.07 "HgN/A
8:00 am64 °FPassing clouds.14 mph56%30.04 "HgN/A
7:00 am61 °FPassing clouds.8 mph59%30.01 "HgN/A
6:00 am59 °FPassing clouds.12 mph59%30.01 "HgN/A
5:00 am59 °FPassing clouds.12 mph59%29.98 "HgN/A
4:00 am59 °FPassing clouds.14 mph59%29.98 "HgN/A
3:00 am59 °FPassing clouds.23 mph59%29.98 "HgN/A
2:00 am61 °FPassing clouds.23 mph59%29.98 "HgN/A
1:00 am61 °FPassing clouds.20 mph63%29.98 "HgN/A
12:00 am63 °FPassing clouds.26 mph68%29.98 "HgN/A
11:00 pm
Thu, Dec 12
63 °FPassing clouds.23 mph68%29.95 "HgN/A
10:00 pm63 °FPassing clouds.22 mph68%29.95 "HgN/A
9:00 pm63 °FPassing clouds.12 mph68%29.89 "HgN/A
8:00 pm63 °FPassing clouds.12 mph68%29.83 "HgN/A
7:00 pm64 °FPartly sunny.14 mph68%29.83 "HgN/A
6:00 pm66 °FBroken clouds.16 mph64%29.80 "HgN/A
5:00 pm68 °FPartly sunny.13 mph64%29.80 "HgN/A
4:00 pm66 °FPartly sunny.17 mph64%29.80 "HgN/A
3:00 pm68 °FBroken clouds.20 mph60%29.77 "HgN/A
2:00 pm68 °FPartly sunny.23 mph64%29.74 "HgN/A
1:00 pm72 °FPartly sunny.23 mph61%29.71 "HgN/A
12:00 pm73 °FPassing clouds.28 mph53%29.65 "HgN/A
11:00 am73 °FPassing clouds.26 mph57%29.62 "HgN/A
10:00 am77 °FSunny.26 mph51%29.59 "Hg10 mi
Weather by CustomWeather, © 2019

See weather overview

Advertising